{"data":{"norad_id":44351,"intl_designator":"2019-036N","name":"FORMOSAT 7-2","alt_names":[],"object_type":"PAYLOAD","status":"ACTIVE","operator":null,"country":"ROC","launch_date":"2019-06-25","launch_site_code":"AFETR","launch_vehicle":null,"mission":null,"orbit_class":"UNKNOWN","rcs_meters":null,"size_class":null,"mass_kg":null,"dimensions":null,"purposes":[],"wikipedia_slug":null,"has_3d_model":false,"image_url":null,"decayed_at":null,"tle_current":{"epoch":"2026-05-24T18:05:22.560576Z","epoch_age_seconds":92443,"freshness":"FRESH","line1":"1 44351U 19036N   26144.75373334  .00002216  00000+0  16496-3 0  9997","line2":"2 44351  23.9993 306.7842 0000323 293.4166  66.6301 14.96386186380075","mean_motion":14.96386186,"eccentricity":3.23e-5,"inclination_deg":23.9993,"raan_deg":306.7842,"arg_perigee_deg":293.4166,"mean_anomaly_deg":66.6301,"bstar":0.00016496,"rev_number":38007,"period_min":96.231842653485,"perigee_km":577.84879588312,"apogee_km":578.29816708022,"semimajor_km":6956.2104814817,"source":"CELESTRAK","updated_at":"2026-05-25T13:37:55.970842Z"}}}